Weather History for Rogers, AR

Change the Weather History Date:

Friday, February 1, 2013

  Actual Average Record
Temperature  
Mean Temperature 28 °F -  
Max Temperature 44 °F 44 °F 68 °F (2003)
Min Temperature 12 °F 27 °F 12 °F (2011)
Degree Days  
Heating Degree Days 37    
Moisture  
Dew Point 11 °F    
Average Humidity 54    
Maximum Humidity 77    
Minimum Humidity 30    
Precipitation  
Precipitation 0.00 in - - ()
Sea Level Pressure  
Sea Level Pressure 30.36 in    
Wind  
Wind Speed 7 mph (ESE)    
Max Wind Speed 13 mph    
Max Gust Speed -    
Visibility 10 miles    
Events      
Averages and records for this station are not official NWS values.
T = Trace of Precipitation, MM = Missing Value Source: NWS Daily Summary

Daily Weather History Graph

Daily Weather History Graph

Search for Another Location

Airport:

Trip Planner

Search our weather history database for the weather conditions in past years. The results will help you decide how hot, cold, wet, or windy it might be!

Date:

Astronomy

Feb. 01, 2013 Rise Set
Actual Time 7:17 AM CST 5:43 PM CST
Civil Twilight 6:50 AM CST 6:10 PM CST
Nautical Twilight 6:19 AM CST 6:40 PM CST
Astronomical Twilight 5:49 AM CST 7:11 PM CST
Moon 11:38 PM CST (2/1) 10:02 AM CST (2/1)
Length of Visible Light 11h 19m
Length of Day
10h 25m
Waning Gibbous, 70% of the Moon is Illuminated
Feb 1
Waning Gibbous
Feb 3
Last Quarter
Feb 10
New
Feb 17
First Quarter
Feb 25
Full

Hourly Weather History & Observations

Time (CST) Temp. Windchill Dew Point Humidity Pressure Visibility Wind Dir Wind Speed Gust Speed Precip Events Conditions
12:57 AM 17.1 °F 8.7 °F 8.1 °F 68% 30.45 in 10.0 mi North 5.8 mph - N/A   Clear
1:57 AM 15.1 °F 3.3 °F 8.1 °F 74% 30.44 in 10.0 mi North 9.2 mph - N/A   Clear
2:57 AM 14.0 °F 0.5 °F 8.1 °F 77% 30.43 in 10.0 mi NNE 11.5 mph - N/A   Clear
3:57 AM 12.9 °F 5.2 °F 7.0 °F 77% 30.45 in 10.0 mi NNE 4.6 mph - N/A   Clear
4:57 AM 12.9 °F 6.9 °F 7.0 °F 77% 30.46 in 10.0 mi ENE 3.5 mph - N/A   Clear
5:57 AM 12.9 °F - 7.0 °F 77% 30.48 in 10.0 mi Calm Calm - N/A   Clear
6:57 AM 12.9 °F 5.2 °F 7.0 °F 77% 30.48 in 10.0 mi East 4.6 mph - N/A   Clear
7:57 AM 15.1 °F 4.2 °F 9.0 °F 77% 30.48 in 10.0 mi SE 8.1 mph - N/A   Clear
9:57 AM 23.0 °F 15.8 °F 10.0 °F 58% 30.48 in 10.0 mi SE 5.8 mph - N/A   Clear
10:57 AM 27.0 °F 20.5 °F 9.0 °F 47% 30.47 in 10.0 mi SSE 5.8 mph - N/A   Clear
11:57 AM 30.9 °F 25.2 °F 9.0 °F 40% 30.44 in 10.0 mi South 5.8 mph - N/A   Clear
12:57 PM 35.1 °F 28.6 °F 7.0 °F 31% 30.39 in 10.0 mi SSE 8.1 mph - N/A   Clear
1:57 PM 37.0 °F 31.0 °F 9.0 °F 31% 30.35 in 10.0 mi ESE 8.1 mph - N/A   Clear
2:57 PM 42.1 °F 35.7 °F 12.9 °F 31% 30.29 in 10.0 mi SE 11.5 mph - N/A   Clear
3:57 PM 44.1 °F 37.7 °F 14.0 °F 30% 30.27 in 10.0 mi SE 12.7 mph - N/A   Clear
4:57 PM 44.1 °F 38.6 °F 15.1 °F 31% 30.24 in 10.0 mi SSE 10.4 mph - N/A   Clear
5:57 PM 39.0 °F 31.8 °F 15.1 °F 38% 30.23 in 10.0 mi South 11.5 mph - N/A   Clear
6:57 PM 37.0 °F 28.9 °F 12.9 °F 37% 30.22 in 10.0 mi SSE 12.7 mph - N/A   Clear
7:57 PM 34.0 °F 26.6 °F 12.9 °F 42% 30.21 in 10.0 mi SE 9.2 mph - N/A   Clear
8:57 PM 32.0 °F - 12.9 °F 45% 30.23 in 10.0 mi Calm Calm - N/A   Clear
9:57 PM 30.0 °F 26.5 °F 16.0 °F 56% 30.26 in 10.0 mi NW 3.5 mph - N/A   Clear
10:57 PM 28.0 °F - 17.1 °F 63% 30.26 in 10.0 mi Calm Calm - N/A   Clear
11:57 PM 28.9 °F 23.9 °F 18.0 °F 64% 30.25 in 10.0 mi SSE 4.6 mph - N/A   Clear